Torna al catalogo

FENGYUN 1C DEB

AttivoPO
NORAD 31952·DEBRIS·🇨🇳 China

Lanciato May 10, 1999 da Taiyuan Satellite Launch Center

Loading…

Prossimi Passaggi (prossime 24 ore)

TLE

AggiornatoSource: Space-Track

Epoca: Sep 13, 2026, 08:26 UTC

1 31952U 99025CND 26256.35194322  .00001784  00000-0  39612-3 0  9999
2 31952  98.9884  38.0351 0112877 181.9093 178.1686 14.54617452 11890

Traccia FENGYUN 1C DEB in tempo reale con AllMySat

Download on the App Store